Location: Buffign�court
(47.8126°N, 6.0176°E)
Time: 20:29:50
(UTC+00:00)

Cosmos 1953 - Pass Details

Date: 16 June 2021
Orbit: 538 x 557 km, 82.5° (Epoch: 23 July)

Event Time Altitude Azimuth Distance (km) Brightness Sun altitude
Rises 21:05:53 0° 349° (N) 2,753 7.2 -11.2°
Reaches altitude 10° 21:08:04 10° 348° (NNW) 1,853 6.2 -11.4°
Maximum altitude 21:12:09 76° 263° (W) 579 2.4 -11.8°
Enters shadow 21:15:34 14° 178° (S) 1,584 4.1 -12.1°
